Location: Caltech
(34.1382°N, 118.1253°W)
Time: 20:21:47
(UTC-07:00)

Oscar 19 - Visible Passes

Search period start: 22 June 2017 00:00
Search period end: 02 July 2017 00:00
Orbit: 773 x 791 km, 98.6° (Epoch: 22 June)

Date Brightness Start Highest point End Pass type
(mag) Time Alt. Az. Time Alt. Az. Time Alt. Az.
22 Jun 13.1 01:07:42 10° ENE 01:08:51 12° E 01:08:51 12° E visible
22 Jun 10.7 02:44:27 10° N 02:49:24 60° WNW 02:49:24 60° WNW visible
23 Jun 11.0 02:12:38 10° NNE 02:17:11 60° ENE 02:17:11 60° ENE visible
23 Jun 12.6 03:54:09 10° NW 03:56:26 13° WNW 03:57:44 12° W visible
24 Jun 12.1 01:41:20 10° NE 01:44:57 28° E 01:44:57 28° E visible
24 Jun 11.8 03:20:44 10° NNW 03:24:58 27° WNW 03:25:30 26° W visible
25 Jun 13.0 01:11:08 10° ENE 01:12:43 13° E 01:12:43 13° E visible
25 Jun 10.9 02:48:21 10° N 02:53:16 55° WNW 02:53:16 55° WNW visible
26 Jun 10.9 02:16:27 10° NNE 02:21:02 65° ENE 02:21:02 65° ENE visible
26 Jun 12.7 03:58:23 10° NW 04:00:14 12° WNW 04:01:35 11° W visible
27 Jun 12.0 01:45:05 10° NE 01:48:48 31° ENE 01:48:48 31° ENE visible
27 Jun 11.9 03:24:41 10° NNW 03:28:46 24° WNW 03:29:21 24° W visible
28 Jun 12.9 01:14:39 10° ENE 01:16:34 15° E 01:16:34 15° E visible
28 Jun 11.0 02:52:13 10° N 02:57:07 50° WNW 02:57:07 50° WNW visible
29 Jun 10.8 02:20:16 10° NNE 02:24:53 69° NE 02:24:53 69° NE visible
29 Jun 12.8 04:02:47 10° NW 04:04:00 11° WNW 04:05:14 10° WNW visible
30 Jun 11.9 01:48:49 10° NNE 01:52:38 33° ENE 01:52:38 33° ENE visible
30 Jun 12.0 03:28:39 10° NNW 03:32:34 23° WNW 03:33:11 22° WNW visible
01 Jul 12.8 01:18:14 10° NE 01:20:23 16° ENE 01:20:23 16° ENE visible
01 Jul 11.1 02:56:06 10° N 03:00:57 46° WNW 03:00:57 46° WNW visible
